Time,TemperatureF,DewpointF,PressureIn,WindDirection,WindDirectionDegrees,WindSpeedMPH,WindSpeedGustMPH,Humidity,HourlyPrecipIn,Conditions,Clouds,dailyrainin,SoftwareType,DateUTC
2013-04-24 00:03:00,36.1,32.9,30.16,North,0,0.0,0.0,88,0.00,,,0.00,WUHU21623XXSP,2013-04-24 05:03:00,
2013-04-24 00:08:00,36.3,33.0,30.16,NNW,337,0.0,0.0,88,0.00,,,0.00,WUHU21623XXSP,2013-04-24 05:08:00,
2013-04-24 00:13:00,36.1,32.9,30.17,North,0,0.0,0.0,88,0.00,,,0.00,WUHU21623XXSP,2013-04-24 05:13:00,
2013-04-24 00:18:00,36.1,32.9,30.17,North,0,0.0,1.6,88,0.00,,,0.00,WUHU21623XXSP,2013-04-24 05:18:00,
2013-04-24 00:23:00,36.1,32.9,30.17,NNE,22,0.0,1.6,88,0.00,,,0.00,WUHU21623XXSP,2013-04-24 05:23:00,
2013-04-24 00:28:00,36.1,32.9,30.17,NNW,337,3.6,3.6,88,0.00,,,0.00,WUHU21623XXSP,2013-04-24 05:28:00,
2013-04-24 00:33:00,36.0,32.9,30.17,North,0,3.6,3.6,88,0.00,,,0.00,WUHU21623XXSP,2013-04-24 05:33:00,
2013-04-24 00:38:00,36.0,32.4,30.18,North,0,0.0,3.6,87,0.00,,,0.00,WUHU21623XXSP,2013-04-24 05:38:00,
2013-04-24 00:43:00,36.0,32.4,30.18,NNW,337,3.4,3.6,87,0.00,,,0.00,WUHU21623XXSP,2013-04-24 05:43:00,
2013-04-24 00:48:00,36.0,32.4,30.18,North,0,0.0,3.4,87,0.00,,,0.00,WUHU21623XXSP,2013-04-24 05:48:00,
2013-04-24 00:53:00,36.0,32.4,30.18,North,0,0.0,3.4,87,0.00,,,0.00,WUHU21623XXSP,2013-04-24 05:53:00,
2013-04-24 00:58:00,35.8,32.2,30.18,NNE,22,0.0,0.0,87,0.00,,,0.00,WUHU21623XXSP,2013-04-24 05:58:00,
2013-04-24 01:03:00,35.8,32.2,30.18,NNE,22,0.0,0.0,87,0.00,,,0.00,WUHU21623XXSP,2013-04-24 06:03:00,
2013-04-24 01:08:00,35.8,32.2,30.18,North,0,0.0,0.0,87,0.00,,,0.00,WUHU21623XXSP,2013-04-24 06:08:00,
2013-04-24 01:13:00,35.8,32.2,30.18,North,0,0.0,0.0,87,0.00,,,0.00,WUHU21623XXSP,2013-04-24 06:13:00,
2013-04-24 01:18:00,35.8,32.2,30.18,North,0,0.0,0.0,87,0.00,,,0.00,WUHU21623XXSP,2013-04-24 06:18:00,
2013-04-24 01:23:00,35.8,32.2,30.18,North,0,0.0,0.0,87,0.00,,,0.00,WUHU21623XXSP,2013-04-24 06:23:00,
2013-04-24 01:28:00,35.8,32.2,30.17,NNE,22,0.0,0.0,87,0.00,,,0.00,WUHU21623XXSP,2013-04-24 06:28:00,
2013-04-24 01:33:00,35.8,32.2,30.17,NNE,22,0.0,0.0,87,0.00,,,0.00,WUHU21623XXSP,2013-04-24 06:33:00,
2013-04-24 01:38:00,35.8,32.2,30.17,NNW,337,0.0,0.0,87,0.00,,,0.00,WUHU21623XXSP,2013-04-24 06:38:00,
2013-04-24 01:43:00,35.8,32.2,30.16,North,0,0.0,0.0,87,0.00,,,0.00,WUHU21623XXSP,2013-04-24 06:43:00,
2013-04-24 01:48:00,35.8,32.2,30.17,NNE,22,0.0,0.0,87,0.00,,,0.00,WUHU21623XXSP,2013-04-24 06:48:00,
2013-04-24 01:53:00,35.8,32.2,30.17,NE,45,4.7,4.7,87,0.00,,,0.00,WUHU21623XXSP,2013-04-24 06:53:00,
2013-04-24 01:58:00,35.8,32.2,30.15,NNE,22,0.0,4.7,87,0.00,,,0.00,WUHU21623XXSP,2013-04-24 06:58:00,
2013-04-24 02:03:00,35.8,32.2,30.16,NNE,22,0.0,0.0,87,0.00,,,0.00,WUHU21623XXSP,2013-04-24 07:03:00,
2013-04-24 02:08:00,35.8,32.2,30.15,NNE,22,0.0,0.0,87,0.00,,,0.00,WUHU21623XXSP,2013-04-24 07:08:00,
2013-04-24 02:13:00,35.8,32.2,30.16,NNE,22,0.0,0.0,87,0.00,,,0.00,WUHU21623XXSP,2013-04-24 07:13:00,
2013-04-24 02:18:00,35.8,32.2,30.16,North,0,2.7,2.7,87,0.00,,,0.00,WUHU21623XXSP,2013-04-24 07:18:00,
2013-04-24 02:23:00,35.8,32.2,30.16,NE,45,0.0,2.7,87,0.00,,,0.00,WUHU21623XXSP,2013-04-24 07:23:00,
2013-04-24 02:28:00,35.8,32.2,30.16,North,0,0.0,2.7,87,0.00,,,0.00,WUHU21623XXSP,2013-04-24 07:28:00,
2013-04-24 02:33:00,35.8,32.2,30.16,NNE,22,0.0,4.0,87,0.00,,,0.00,WUHU21623XXSP,2013-04-24 07:33:00,
2013-04-24 02:38:00,35.8,32.2,30.15,North,0,0.0,4.0,88,0.00,,,0.00,WUHU21623XXSP,2013-04-24 07:38:00,
2013-04-24 02:43:00,35.8,32.5,30.18,NNE,22,0.0,0.0,88,0.00,,,0.00,WUHU21623XXSP,2013-04-24 07:43:00,
2013-04-24 02:48:00,35.8,32.2,30.18,North,0,1.6,6.7,87,0.00,,,0.00,WUHU21623XXSP,2013-04-24 07:48:00,
2013-04-24 02:53:00,35.8,32.2,30.18,North,0,1.6,6.7,87,0.00,,,0.00,WUHU21623XXSP,2013-04-24 07:53:00,
2013-04-24 02:58:00,35.8,32.2,30.18,North,0,0.0,1.6,87,0.00,,,0.00,WUHU21623XXSP,2013-04-24 07:58:00,
2013-04-24 03:03:00,35.8,32.2,30.18,North,0,0.0,1.6,87,0.00,,,0.00,WUHU21623XXSP,2013-04-24 08:03:00,
2013-04-24 03:08:00,36.0,32.4,30.16,NNE,22,0.0,0.0,87,0.00,,,0.00,WUHU21623XXSP,2013-04-24 08:08:00,
2013-04-24 03:13:00,36.0,32.4,30.16,NNE,22,0.0,0.0,87,0.00,,,0.00,WUHU21623XXSP,2013-04-24 08:13:00,
2013-04-24 03:18:00,36.0,32.2,30.16,North,0,0.0,0.0,87,0.00,,,0.00,WUHU21623XXSP,2013-04-24 08:18:00,
2013-04-24 03:23:00,36.0,32.1,30.17,North,0,0.0,0.0,86,0.00,,,0.00,WUHU21623XXSP,2013-04-24 08:23:00,
2013-04-24 03:28:00,36.0,32.1,30.16,NNE,22,0.0,0.0,86,0.00,,,0.00,WUHU21623XXSP,2013-04-24 08:28:00,
2013-04-24 03:33:00,36.0,32.1,30.18,North,0,0.0,0.0,86,0.00,,,0.00,WUHU21623XXSP,2013-04-24 08:33:00,
2013-04-24 03:38:00,36.0,32.1,30.18,North,0,0.0,0.0,86,0.00,,,0.00,WUHU21623XXSP,2013-04-24 08:38:00,
2013-04-24 03:43:00,36.0,32.1,30.18,NNW,337,0.0,0.0,86,0.00,,,0.00,WUHU21623XXSP,2013-04-24 08:43:00,
2013-04-24 03:48:00,36.0,32.1,30.18,NNW,337,0.0,0.0,86,0.00,,,0.00,WUHU21623XXSP,2013-04-24 08:48:00,
2013-04-24 03:53:00,36.0,32.1,30.19,WNW,292,0.0,0.0,86,0.00,,,0.00,WUHU21623XXSP,2013-04-24 08:53:00,
2013-04-24 03:58:00,36.0,32.1,30.20,NNW,337,0.0,0.0,86,0.00,,,0.00,WUHU21623XXSP,2013-04-24 08:58:00,
2013-04-24 04:03:00,36.0,32.1,30.20,WNW,292,0.0,0.0,86,0.00,,,0.00,WUHU21623XXSP,2013-04-24 09:03:00,
2013-04-24 04:08:00,36.0,32.1,30.20,North,0,0.0,0.0,86,0.00,,,0.00,WUHU21623XXSP,2013-04-24 09:08:00,
2013-04-24 04:13:00,36.0,32.1,30.22,NNW,337,0.0,0.0,86,0.00,,,0.00,WUHU21623XXSP,2013-04-24 09:13:00,
2013-04-24 04:18:00,36.0,31.8,30.23,NNW,337,0.0,0.0,85,0.00,,,0.00,WUHU21623XXSP,2013-04-24 09:18:00,
2013-04-24 04:23:00,36.0,31.8,30.23,NW,315,0.0,0.0,85,0.00,,,0.00,WUHU21623XXSP,2013-04-24 09:23:00,
2013-04-24 04:28:00,36.0,31.8,30.23,NW,315,0.0,0.0,85,0.00,,,0.00,WUHU21623XXSP,2013-04-24 09:28:00,
2013-04-24 04:33:00,35.8,31.6,30.23,NNW,337,0.0,0.0,85,0.00,,,0.00,WUHU21623XXSP,2013-04-24 09:33:00,
2013-04-24 04:38:00,35.8,31.6,30.23,NW,315,0.0,0.0,85,0.00,,,0.00,WUHU21623XXSP,2013-04-24 09:38:00,
2013-04-24 04:43:00,35.6,31.5,30.24,North,0,0.0,0.0,85,0.00,,,0.00,WUHU21623XXSP,2013-04-24 09:43:00,
2013-04-24 04:48:00,35.4,31.6,30.24,North,0,0.0,0.0,86,0.00,,,0.00,WUHU21623XXSP,2013-04-24 09:48:00,
2013-04-24 04:53:00,35.4,31.6,30.24,NNW,337,0.0,0.0,86,0.00,,,0.00,WUHU21623XXSP,2013-04-24 09:53:00,
2013-04-24 04:58:00,35.4,31.6,30.23,NNW,337,0.0,0.0,86,0.00,,,0.00,WUHU21623XXSP,2013-04-24 09:58:00,
2013-04-24 05:03:00,35.4,31.6,30.23,NNE,22,0.0,0.0,86,0.00,,,0.00,WUHU21623XXSP,2013-04-24 10:03:00,
2013-04-24 05:08:00,35.4,31.6,30.23,NW,315,0.0,0.0,86,0.00,,,0.00,WUHU21623XXSP,2013-04-24 10:08:00,
2013-04-24 05:13:00,35.4,31.6,30.23,NNE,22,3.1,3.1,86,0.00,,,0.00,WUHU21623XXSP,2013-04-24 10:13:00,
2013-04-24 05:18:00,35.2,31.6,30.23,North,0,3.6,3.6,86,0.00,,,0.00,WUHU21623XXSP,2013-04-24 10:18:00,
2013-04-24 05:23:00,35.4,31.6,30.23,North,0,0.0,3.6,86,0.00,,,0.00,WUHU21623XXSP,2013-04-24 10:23:00,
2013-04-24 05:28:00,35.4,31.6,30.23,North,0,0.0,0.0,86,0.00,,,0.00,WUHU21623XXSP,2013-04-24 10:28:00,
2013-04-24 05:33:00,35.2,31.6,30.23,NW,315,0.0,0.0,86,0.00,,,0.00,WUHU21623XXSP,2013-04-24 10:33:00,
2013-04-24 05:38:00,35.2,31.4,30.22,NNW,337,0.0,0.0,86,0.00,,,0.00,WUHU21623XXSP,2013-04-24 10:38:00,
2013-04-24 05:43:00,35.2,31.4,30.23,NNE,22,0.0,0.0,86,0.00,,,0.00,WUHU21623XXSP,2013-04-24 10:43:00,
2013-04-24 05:48:00,35.2,31.4,30.23,North,0,1.1,1.1,86,0.00,,,0.00,WUHU21623XXSP,2013-04-24 10:48:00,
2013-04-24 05:53:00,35.1,31.2,30.24,NNW,337,0.0,1.1,86,0.00,,,0.00,WUHU21623XXSP,2013-04-24 10:53:00,
2013-04-24 05:58:00,34.9,31.0,30.24,NNE,22,0.0,1.1,86,0.00,,,0.00,WUHU21623XXSP,2013-04-24 10:58:00,
2013-04-24 06:03:00,34.9,31.0,30.23,North,0,0.0,0.0,86,0.00,,,0.00,WUHU21623XXSP,2013-04-24 11:03:00,
2013-04-24 06:08:00,34.9,31.0,30.23,North,0,0.0,0.0,86,0.00,,,0.00,WUHU21623XXSP,2013-04-24 11:08:00,
2013-04-24 06:13:00,34.9,31.0,30.24,NNW,337,0.0,0.0,86,0.00,,,0.00,WUHU21623XXSP,2013-04-24 11:13:00,
2013-04-24 06:18:00,34.7,30.8,30.23,NNW,337,0.0,0.0,86,0.00,,,0.00,WUHU21623XXSP,2013-04-24 11:18:00,
2013-04-24 06:23:00,34.7,30.8,30.24,NNE,22,0.0,0.0,86,0.00,,,0.00,WUHU21623XXSP,2013-04-24 11:23:00,
2013-04-24 06:28:00,34.5,30.7,30.23,NNE,22,0.0,0.0,86,0.00,,,0.00,WUHU21623XXSP,2013-04-24 11:28:00,
2013-04-24 06:33:00,34.3,30.5,30.23,North,0,0.0,0.0,86,0.00,,,0.00,WUHU21623XXSP,2013-04-24 11:33:00,
2013-04-24 06:38:00,34.3,30.5,30.24,North,0,0.0,0.0,86,0.00,,,0.00,WUHU21623XXSP,2013-04-24 11:38:00,
2013-04-24 06:43:00,34.2,30.3,30.24,NNE,22,0.0,0.0,86,0.00,,,0.00,WUHU21623XXSP,2013-04-24 11:43:00,
2013-04-24 06:48:00,34.2,30.3,30.25,NNE,22,0.0,0.0,86,0.00,,,0.00,WUHU21623XXSP,2013-04-24 11:48:00,
2013-04-24 06:53:00,34.0,30.1,30.25,NNE,22,0.0,0.0,86,0.00,,,0.00,WUHU21623XXSP,2013-04-24 11:53:00,
2013-04-24 06:58:00,34.0,30.1,30.25,NNE,22,0.0,0.0,86,0.00,,,0.00,WUHU21623XXSP,2013-04-24 11:58:00,
2013-04-24 07:03:00,34.2,30.3,30.26,NNW,337,0.0,0.0,86,0.00,,,0.00,WUHU21623XXSP,2013-04-24 12:03:00,
2013-04-24 07:08:00,34.3,30.5,30.26,North,0,0.0,0.0,86,0.00,,,0.00,WUHU21623XXSP,2013-04-24 12:08:00,
2013-04-24 07:13:00,34.3,30.5,30.26,North,0,0.0,0.0,86,0.00,,,0.00,WUHU21623XXSP,2013-04-24 12:13:00,
2013-04-24 07:18:00,34.3,30.5,30.26,North,0,0.0,0.0,86,0.00,,,0.00,WUHU21623XXSP,2013-04-24 12:18:00,
2013-04-24 07:24:00,34.5,30.7,30.26,NE,45,8.1,8.1,86,0.00,,,0.00,WUHU21623XXSP,2013-04-24 12:24:00,
2013-04-24 07:29:00,34.5,30.7,30.27,NNW,337,0.0,8.1,85,0.00,,,0.00,WUHU21623XXSP,2013-04-24 12:29:00,
2013-04-24 07:34:00,34.7,30.6,30.28,North,0,2.0,2.0,85,0.00,,,0.00,WUHU21623XXSP,2013-04-24 12:34:00,
2013-04-24 07:39:00,34.9,30.7,30.27,North,0,0.0,2.0,85,0.00,,,0.00,WUHU21623XXSP,2013-04-24 12:39:00,
2013-04-24 07:44:00,34.9,30.7,30.27,NNW,337,0.0,0.0,85,0.00,,,0.00,WUHU21623XXSP,2013-04-24 12:44:00,
2013-04-24 07:49:00,34.9,30.5,30.27,North,0,0.0,0.0,84,0.00,,,0.00,WUHU21623XXSP,2013-04-24 12:49:00,
2013-04-24 07:54:00,34.9,30.5,30.27,NNW,337,0.0,0.0,84,0.00,,,0.00,WUHU21623XXSP,2013-04-24 12:54:00,
2013-04-24 07:59:00,34.9,30.5,30.27,North,0,0.0,0.0,84,0.00,,,0.00,WUHU21623XXSP,2013-04-24 12:59:00,
2013-04-24 08:04:00,35.1,30.2,30.27,North,0,0.0,0.0,83,0.00,,,0.00,WUHU21623XXSP,2013-04-24 13:04:00,
2013-04-24 08:09:00,35.2,30.5,30.27,North,0,0.0,0.0,83,0.00,,,0.00,WUHU21623XXSP,2013-04-24 13:09:00,
2013-04-24 08:14:00,35.4,30.7,30.27,NNE,22,0.0,0.0,83,0.00,,,0.00,WUHU21623XXSP,2013-04-24 13:14:00,
2013-04-24 08:19:00,36.3,31.1,30.27,NNE,22,0.0,0.0,84,0.00,,,0.00,WUHU21623XXSP,2013-04-24 13:19:00,
2013-04-24 08:24:00,37.2,32.5,30.27,North,0,0.0,0.0,83,0.00,,,0.00,WUHU21623XXSP,2013-04-24 13:24:00,
2013-04-24 08:29:00,37.2,31.9,30.27,NE,45,0.0,0.0,81,0.00,,,0.00,WUHU21623XXSP,2013-04-24 13:29:00,
2013-04-24 08:34:00,37.6,32.0,30.28,North,0,0.0,0.0,80,0.00,,,0.00,WUHU21623XXSP,2013-04-24 13:34:00,
2013-04-24 08:39:00,38.1,32.6,30.28,NNE,22,0.0,0.0,81,0.00,,,0.00,WUHU21623XXSP,2013-04-24 13:39:00,
2013-04-24 08:44:00,38.5,32.9,30.28,North,0,0.0,0.0,80,0.00,,,0.00,WUHU21623XXSP,2013-04-24 13:44:00,
2013-04-24 08:49:00,38.8,32.9,30.28,NE,45,0.0,0.0,79,0.00,,,0.00,WUHU21623XXSP,2013-04-24 13:49:00,
2013-04-24 08:54:00,38.8,32.9,30.28,North,0,1.6,1.6,79,0.00,,,0.00,WUHU21623XXSP,2013-04-24 13:54:00,
2013-04-24 08:59:00,38.8,32.2,30.28,North,0,0.0,1.6,77,0.00,,,0.00,WUHU21623XXSP,2013-04-24 13:59:00,
2013-04-24 09:04:00,38.5,31.6,30.28,NNE,22,0.0,0.0,76,0.00,,,0.00,WUHU21623XXSP,2013-04-24 14:04:00,
2013-04-24 09:09:00,38.1,31.5,30.28,NNE,22,0.0,0.0,77,0.00,,,0.00,WUHU21623XXSP,2013-04-24 14:09:00,
2013-04-24 09:14:00,38.3,31.7,30.28,NNE,22,0.0,0.0,77,0.00,,,0.00,WUHU21623XXSP,2013-04-24 14:14:00,
2013-04-24 09:19:00,38.5,31.9,30.27,North,0,0.0,0.0,77,0.00,,,0.00,WUHU21623XXSP,2013-04-24 14:19:00,
2013-04-24 09:24:00,39.7,32.8,30.27,North,0,0.0,0.0,76,0.00,,,0.00,WUHU21623XXSP,2013-04-24 14:24:00,
2013-04-24 09:29:00,40.3,32.9,30.27,NNE,22,0.0,0.0,75,0.00,,,0.00,WUHU21623XXSP,2013-04-24 14:29:00,
2013-04-24 09:34:00,40.8,33.1,30.28,NE,45,1.6,1.6,75,0.00,,,0.00,WUHU21623XXSP,2013-04-24 14:34:00,
2013-04-24 09:39:00,40.6,32.6,30.28,North,0,0.0,1.6,73,0.00,,,0.00,WUHU21623XXSP,2013-04-24 14:39:00,
2013-04-24 09:44:00,40.6,32.6,30.27,NE,45,1.8,1.8,73,0.00,,,0.00,WUHU21623XXSP,2013-04-24 14:44:00,
2013-04-24 09:49:00,40.5,32.1,30.28,NNE,22,0.0,1.8,72,0.00,,,0.00,WUHU21623XXSP,2013-04-24 14:49:00,
2013-04-24 09:54:00,40.6,32.3,30.27,NNE,22,0.0,1.8,72,0.00,,,0.00,WUHU21623XXSP,2013-04-24 14:54:00,
2013-04-24 09:59:00,41.0,33.0,30.27,NNE,22,0.0,0.0,73,0.00,,,0.00,WUHU21623XXSP,2013-04-24 14:59:00,
2013-04-24 10:04:00,41.7,33.7,30.27,NNE,22,0.0,0.0,73,0.00,,,0.00,WUHU21623XXSP,2013-04-24 15:04:00,
2013-04-24 10:09:00,42.4,34.1,30.27,North,0,0.0,0.0,72,0.00,,,0.00,WUHU21623XXSP,2013-04-24 15:09:00,
2013-04-24 10:14:00,42.6,33.9,30.28,NE,45,0.0,0.0,71,0.00,,,0.00,WUHU21623XXSP,2013-04-24 15:14:00,
2013-04-24 10:19:00,42.6,32.4,30.28,NNW,337,0.0,0.9,67,0.00,,,0.00,WUHU21623XXSP,2013-04-24 15:19:00,
2013-04-24 10:24:00,42.4,31.9,30.28,NNW,337,0.0,0.9,66,0.00,,,0.00,WUHU21623XXSP,2013-04-24 15:24:00,
2013-04-24 10:29:00,41.9,31.5,30.28,NNW,337,0.0,0.0,66,0.00,,,0.00,WUHU21623XXSP,2013-04-24 15:29:00,
2013-04-24 10:34:00,41.5,31.0,30.28,North,0,0.0,0.0,66,0.00,,,0.00,WUHU21623XXSP,2013-04-24 15:34:00,
2013-04-24 10:39:00,41.5,31.4,30.28,NNW,337,0.0,0.0,67,0.00,,,0.00,WUHU21623XXSP,2013-04-24 15:39:00,
2013-04-24 10:44:00,41.7,31.4,30.29,NNW,337,0.0,0.0,66,0.00,,,0.00,WUHU21623XXSP,2013-04-24 15:44:00,
2013-04-24 10:49:00,42.4,31.9,30.29,NNW,337,0.0,0.0,66,0.00,,,0.00,WUHU21623XXSP,2013-04-24 15:49:00,
2013-04-24 10:54:00,43.0,32.4,30.29,North,0,0.0,0.0,66,0.00,,,0.00,WUHU21623XXSP,2013-04-24 15:54:00,
2013-04-24 10:59:00,43.3,31.9,30.30,NNE,22,0.0,0.0,64,0.00,,,0.00,WUHU21623XXSP,2013-04-24 15:59:00,
2013-04-24 11:04:00,43.9,32.3,30.31,North,0,3.1,3.1,64,0.00,,,0.00,WUHU21623XXSP,2013-04-24 16:04:00,
2013-04-24 11:09:00,43.9,32.5,30.31,WSW,247,0.0,3.1,64,0.00,,,0.00,WUHU21623XXSP,2013-04-24 16:09:00,
2013-04-24 11:14:00,43.9,32.5,30.30,North,0,0.0,3.1,64,0.00,,,0.00,WUHU21623XXSP,2013-04-24 16:14:00,
2013-04-24 11:19:00,43.9,32.3,30.31,NNW,337,0.0,0.0,64,0.00,,,0.00,WUHU21623XXSP,2013-04-24 16:19:00,
2013-04-24 11:24:00,44.4,32.2,30.31,NNW,337,0.0,0.0,63,0.00,,,0.00,WUHU21623XXSP,2013-04-24 16:24:00,
2013-04-24 11:29:00,44.4,31.5,30.30,NNE,22,0.0,0.0,60,0.00,,,0.00,WUHU21623XXSP,2013-04-24 16:29:00,
2013-04-24 11:34:00,45.0,32.3,30.31,North,0,0.0,0.0,61,0.00,,,0.00,WUHU21623XXSP,2013-04-24 16:34:00,
2013-04-24 11:39:00,45.0,32.0,30.31,North,0,0.0,0.0,60,0.00,,,0.00,WUHU21623XXSP,2013-04-24 16:39:00,
2013-04-24 11:44:00,45.3,32.1,30.31,NNW,337,0.0,0.0,60,0.00,,,0.00,WUHU21623XXSP,2013-04-24 16:44:00,
2013-04-24 11:49:00,45.5,32.0,30.31,NE,45,0.0,0.0,59,0.00,,,0.00,WUHU21623XXSP,2013-04-24 16:49:00,
2013-04-24 11:54:00,45.7,32.6,30.31,North,0,0.0,0.0,60,0.00,,,0.00,WUHU21623XXSP,2013-04-24 16:54:00,
2013-04-24 11:59:00,46.2,33.1,30.31,NNW,337,0.0,0.0,60,0.00,,,0.00,WUHU21623XXSP,2013-04-24 16:59:00,
2013-04-24 12:04:00,46.8,33.0,30.31,NNW,337,0.0,0.0,57,0.00,,,0.00,WUHU21623XXSP,2013-04-24 17:04:00,
2013-04-24 12:09:00,46.9,32.0,30.31,NNE,22,0.0,0.0,56,0.00,,,0.00,WUHU21623XXSP,2013-04-24 17:09:00,
2013-04-24 12:14:00,46.9,32.0,30.31,NW,315,0.0,0.0,56,0.00,,,0.00,WUHU21623XXSP,2013-04-24 17:14:00,
2013-04-24 12:19:00,47.3,32.8,30.30,NW,315,0.0,0.0,57,0.00,,,0.00,WUHU21623XXSP,2013-04-24 17:19:00,
2013-04-24 12:24:00,47.8,32.4,30.30,NW,315,0.0,0.0,55,0.00,,,0.00,WUHU21623XXSP,2013-04-24 17:24:00,
2013-04-24 12:29:00,48.4,33.4,30.30,North,0,0.0,0.0,56,0.00,,,0.00,WUHU21623XXSP,2013-04-24 17:29:00,
2013-04-24 12:34:00,48.7,32.1,30.30,NE,45,0.0,0.0,53,0.00,,,0.00,WUHU21623XXSP,2013-04-24 17:34:00,
2013-04-24 12:39:00,49.1,32.2,30.30,NNW,337,0.0,0.0,52,0.00,,,0.00,WUHU21623XXSP,2013-04-24 17:39:00,
2013-04-24 12:44:00,49.8,32.5,30.30,NNW,337,0.0,0.0,52,0.00,,,0.00,WUHU21623XXSP,2013-04-24 17:44:00,
2013-04-24 12:49:00,50.7,33.4,30.30,WNW,292,0.0,0.0,51,0.00,,,0.00,WUHU21623XXSP,2013-04-24 17:49:00,
2013-04-24 12:54:00,51.4,34.4,30.30,NNE,22,0.0,0.0,52,0.00,,,0.00,WUHU21623XXSP,2013-04-24 17:54:00,
2013-04-24 12:59:00,52.0,34.4,30.30,WSW,247,0.0,0.0,51,0.00,,,0.00,WUHU21623XXSP,2013-04-24 17:59:00,
2013-04-24 13:04:00,52.3,33.7,30.29,NNE,22,0.0,0.0,49,0.00,,,0.00,WUHU21623XXSP,2013-04-24 18:04:00,
2013-04-24 13:09:00,52.3,34.3,30.29,North,0,0.0,0.0,50,0.00,,,0.00,WUHU21623XXSP,2013-04-24 18:09:00,
2013-04-24 13:14:00,52.3,33.2,30.29,North,0,0.0,0.0,48,0.00,,,0.00,WUHU21623XXSP,2013-04-24 18:14:00,
2013-04-24 13:19:00,52.3,33.2,30.28,South,180,0.0,0.0,48,0.00,,,0.00,WUHU21623XXSP,2013-04-24 18:19:00,
2013-04-24 13:24:00,53.1,33.5,30.29,North,0,0.0,0.0,48,0.00,,,0.00,WUHU21623XXSP,2013-04-24 18:24:00,
2013-04-24 13:29:00,53.2,32.3,30.29,NNE,22,0.0,0.0,45,0.00,,,0.00,WUHU21623XXSP,2013-04-24 18:29:00,
2013-04-24 13:34:00,53.4,33.6,30.29,North,0,0.0,0.0,47,0.00,,,0.00,WUHU21623XXSP,2013-04-24 18:34:00,
2013-04-24 13:39:00,53.8,33.4,30.29,NNE,22,0.0,0.0,46,0.00,,,0.00,WUHU21623XXSP,2013-04-24 18:39:00,
2013-04-24 13:44:00,54.3,33.7,30.29,NNE,22,0.0,3.8,46,0.00,,,0.00,WUHU21623XXSP,2013-04-24 18:44:00,
2013-04-24 13:49:00,54.1,33.7,30.29,WNW,292,0.0,3.8,46,0.00,,,0.00,WUHU21623XXSP,2013-04-24 18:49:00,
2013-04-24 13:54:00,54.3,34.4,30.29,NNW,337,0.0,0.7,47,0.00,,,0.00,WUHU21623XXSP,2013-04-24 18:54:00,
2013-04-24 13:59:00,54.3,33.3,30.29,NNW,337,0.0,0.0,45,0.00,,,0.00,WUHU21623XXSP,2013-04-24 18:59:00,
2013-04-24 14:04:00,55.0,33.9,30.29,WSW,247,0.0,0.0,45,0.00,,,0.00,WUHU21623XXSP,2013-04-24 19:04:00,
2013-04-24 14:09:00,55.2,34.1,30.29,WSW,247,0.0,0.0,45,0.00,,,0.00,WUHU21623XXSP,2013-04-24 19:09:00,
2013-04-24 14:14:00,55.9,34.6,30.29,East,90,0.0,0.0,45,0.00,,,0.00,WUHU21623XXSP,2013-04-24 19:14:00,
2013-04-24 14:19:00,56.1,33.8,30.29,NNW,337,0.0,0.0,43,0.00,,,0.00,WUHU21623XXSP,2013-04-24 19:19:00,
2013-04-24 14:24:00,56.1,32.7,30.29,NW,315,0.0,0.0,41,0.00,,,0.00,WUHU21623XXSP,2013-04-24 19:24:00,
2013-04-24 14:29:00,55.9,33.1,30.29,NNW,337,0.0,2.9,42,0.00,,,0.00,WUHU21623XXSP,2013-04-24 19:29:00,
2013-04-24 14:34:00,56.5,34.1,30.28,NW,315,0.0,2.9,43,0.00,,,0.00,WUHU21623XXSP,2013-04-24 19:34:00,
2013-04-24 14:39:00,57.2,34.2,30.29,South,180,0.0,0.0,42,0.00,,,0.00,WUHU21623XXSP,2013-04-24 19:39:00,
2013-04-24 14:44:00,57.9,34.7,30.29,NNE,22,0.0,0.0,41,0.00,,,0.00,WUHU21623XXSP,2013-04-24 19:44:00,
2013-04-24 14:49:00,57.6,32.7,30.29,NE,45,0.0,0.0,39,0.00,,,0.00,WUHU21623XXSP,2013-04-24 19:49:00,
2013-04-24 14:54:00,57.4,33.8,30.29,NW,315,0.0,0.0,41,0.00,,,0.00,WUHU21623XXSP,2013-04-24 19:54:00,
2013-04-24 14:59:00,57.9,34.0,30.29,NNW,337,0.0,0.0,40,0.00,,,0.00,WUHU21623XXSP,2013-04-24 19:59:00,
2013-04-24 15:04:00,58.1,33.2,30.29,North,0,0.0,0.0,39,0.00,,,0.00,WUHU21623XXSP,2013-04-24 20:04:00,
2013-04-24 15:09:00,58.3,33.9,30.29,NNW,337,0.0,0.0,39,0.00,,,0.00,WUHU21623XXSP,2013-04-24 20:09:00,
2013-04-24 15:14:00,57.9,33.0,30.29,NNW,337,0.0,0.0,39,0.00,,,0.00,WUHU21623XXSP,2013-04-24 20:14:00,
2013-04-24 15:20:00,57.9,33.7,30.29,North,0,0.0,0.0,40,0.00,,,0.00,WUHU21623XXSP,2013-04-24 20:20:00,
2013-04-24 15:25:00,58.1,33.2,30.28,NNE,22,0.0,0.0,39,0.00,,,0.00,WUHU21623XXSP,2013-04-24 20:25:00,
2013-04-24 15:30:00,58.5,33.4,30.28,NNW,337,0.0,0.0,37,0.00,,,0.00,WUHU21623XXSP,2013-04-24 20:30:00,
2013-04-24 15:35:00,58.3,31.2,30.28,WSW,247,0.0,0.0,36,0.00,,,0.00,WUHU21623XXSP,2013-04-24 20:35:00,
2013-04-24 15:40:00,58.1,31.9,30.28,WSW,247,0.0,0.0,36,0.00,,,0.00,WUHU21623XXSP,2013-04-24 20:40:00,
2013-04-24 15:45:00,57.7,30.8,30.28,WNW,292,0.0,0.0,36,0.00,,,0.00,WUHU21623XXSP,2013-04-24 20:45:00,
2013-04-24 15:50:00,57.6,30.6,30.28,North,0,0.0,0.0,37,0.00,,,0.00,WUHU21623XXSP,2013-04-24 20:50:00,
2013-04-24 15:55:00,57.6,32.0,30.28,NE,45,3.6,3.6,38,0.00,,,0.00,WUHU21623XXSP,2013-04-24 20:55:00,
2013-04-24 16:00:00,57.4,31.1,30.27,NNE,22,0.0,3.6,37,0.00,,,0.00,WUHU21623XXSP,2013-04-24 21:00:00,
2013-04-24 16:05:00,56.8,32.8,30.27,NNE,22,0.0,0.0,40,0.00,,,0.00,WUHU21623XXSP,2013-04-24 21:05:00,
2013-04-24 16:10:00,57.0,32.2,30.27,NNW,337,0.0,0.0,38,0.00,,,0.00,WUHU21623XXSP,2013-04-24 21:10:00,
2013-04-24 16:15:00,57.4,31.1,30.27,WSW,247,0.0,0.0,37,0.00,,,0.00,WUHU21623XXSP,2013-04-24 21:15:00,
2013-04-24 16:20:00,57.7,32.2,30.27,North,0,0.0,0.0,38,0.00,,,0.00,WUHU21623XXSP,2013-04-24 21:20:00,
2013-04-24 16:25:00,58.1,32.5,30.27,North,0,0.0,0.0,38,0.00,,,0.00,WUHU21623XXSP,2013-04-24 21:25:00,
2013-04-24 16:30:00,58.3,31.9,30.27,North,0,0.0,0.0,37,0.00,,,0.00,WUHU21623XXSP,2013-04-24 21:30:00,
2013-04-24 16:35:00,57.9,30.9,30.27,NNE,22,0.0,1.1,36,0.00,,,0.00,WUHU21623XXSP,2013-04-24 21:35:00,
2013-04-24 16:40:00,57.7,30.8,30.27,NNW,337,0.0,1.1,36,0.00,,,0.00,WUHU21623XXSP,2013-04-24 21:40:00,
2013-04-24 16:45:00,57.0,30.8,30.27,NNW,337,0.0,0.0,37,0.00,,,0.00,WUHU21623XXSP,2013-04-24 21:45:00,
2013-04-24 16:50:00,56.8,29.9,30.27,NNW,337,0.0,0.0,36,0.00,,,0.00,WUHU21623XXSP,2013-04-24 21:50:00,
2013-04-24 16:55:00,56.5,31.0,30.27,NNW,337,0.0,0.0,38,0.00,,,0.00,WUHU21623XXSP,2013-04-24 21:55:00,
2013-04-24 17:00:00,56.1,30.9,30.27,ENE,67,0.0,0.0,38,0.00,,,0.00,WUHU21623XXSP,2013-04-24 22:00:00,
2013-04-24 17:05:00,55.9,30.5,30.27,North,0,0.0,0.0,38,0.00,,,0.00,WUHU21623XXSP,2013-04-24 22:05:00,
2013-04-24 17:10:00,55.9,31.2,30.27,NNW,337,0.0,0.0,39,0.00,,,0.00,WUHU21623XXSP,2013-04-24 22:10:00,
2013-04-24 17:15:00,55.8,30.4,30.27,SW,225,0.0,0.0,38,0.00,,,0.00,WUHU21623XXSP,2013-04-24 22:15:00,
2013-04-24 17:20:00,55.2,29.9,30.27,WSW,247,0.0,0.0,38,0.00,,,0.00,WUHU21623XXSP,2013-04-24 22:20:00,
2013-04-24 17:25:00,55.0,30.4,30.27,NNW,337,0.0,0.0,39,0.00,,,0.00,WUHU21623XXSP,2013-04-24 22:25:00,
2013-04-24 17:30:00,54.9,30.3,30.27,North,0,0.0,0.0,39,0.00,,,0.00,WUHU21623XXSP,2013-04-24 22:30:00,
2013-04-24 17:35:00,54.5,29.4,30.27,NNE,22,0.0,0.0,38,0.00,,,0.00,WUHU21623XXSP,2013-04-24 22:35:00,
2013-04-24 17:40:00,54.3,29.1,30.27,WNW,292,0.0,0.0,38,0.00,,,0.00,WUHU21623XXSP,2013-04-24 22:40:00,
2013-04-24 17:45:00,54.5,29.9,30.27,NNE,22,0.0,0.0,39,0.00,,,0.00,WUHU21623XXSP,2013-04-24 22:45:00,
2013-04-24 17:50:00,54.5,29.9,30.26,North,0,0.0,0.0,39,0.00,,,0.00,WUHU21623XXSP,2013-04-24 22:50:00,
2013-04-24 17:55:00,54.7,30.8,30.27,NNE,22,0.0,0.0,40,0.00,,,0.00,WUHU21623XXSP,2013-04-24 22:55:00,
2013-04-24 18:00:00,54.3,29.8,30.27,NNE,22,0.0,0.0,39,0.00,,,0.00,WUHU21623XXSP,2013-04-24 23:00:00,
2013-04-24 18:05:00,54.3,29.8,30.27,NNW,337,0.0,0.0,39,0.00,,,0.00,WUHU21623XXSP,2013-04-24 23:05:00,
2013-04-24 18:10:00,54.3,29.8,30.26,NNE,22,0.0,0.0,39,0.00,,,0.00,WUHU21623XXSP,2013-04-24 23:10:00,
2013-04-24 18:15:00,54.3,29.8,30.27,NNW,337,0.0,0.0,39,0.00,,,0.00,WUHU21623XXSP,2013-04-24 23:15:00,
2013-04-24 18:20:00,54.3,29.1,30.27,NNW,337,0.0,0.0,38,0.00,,,0.00,WUHU21623XXSP,2013-04-24 23:20:00,
2013-04-24 18:25:00,54.1,28.9,30.27,NNW,337,0.0,0.0,38,0.00,,,0.00,WUHU21623XXSP,2013-04-24 23:25:00,
2013-04-24 18:30:00,54.0,28.8,30.27,NW,315,0.0,0.0,38,0.00,,,0.00,WUHU21623XXSP,2013-04-24 23:30:00,
2013-04-24 18:35:00,53.8,29.3,30.27,NNW,337,0.0,0.0,39,0.00,,,0.00,WUHU21623XXSP,2013-04-24 23:35:00,
2013-04-24 18:40:00,53.8,29.3,30.27,NNW,337,0.0,0.0,39,0.00,,,0.00,WUHU21623XXSP,2013-04-24 23:40:00,
2013-04-24 18:45:00,53.4,29.0,30.27,NNW,337,0.0,0.0,39,0.00,,,0.00,WUHU21623XXSP,2013-04-24 23:45:00,
2013-04-24 18:50:00,53.4,29.0,30.27,NNW,337,0.0,0.0,39,0.00,,,0.00,WUHU21623XXSP,2013-04-24 23:50:00,
2013-04-24 18:55:00,53.4,28.3,30.27,NNE,22,0.0,0.0,38,0.00,,,0.00,WUHU21623XXSP,2013-04-24 23:55:00,
2013-04-24 19:00:00,52.9,28.5,30.27,NNE,22,0.0,0.0,39,0.00,,,0.00,WUHU21623XXSP,2013-04-25 00:00:00,
2013-04-24 19:05:00,52.7,28.3,30.27,North,0,0.0,0.0,39,0.00,,,0.00,WUHU21623XXSP,2013-04-25 00:05:00,
2013-04-24 19:10:00,52.5,28.2,30.28,NNE,22,0.0,0.0,39,0.00,,,0.00,WUHU21623XXSP,2013-04-25 00:10:00,
2013-04-24 19:15:00,52.2,27.9,30.28,NNE,22,0.0,0.0,39,0.00,,,0.00,WUHU21623XXSP,2013-04-25 00:15:00,
2013-04-24 19:20:00,51.6,27.4,30.28,NNE,22,0.0,0.0,39,0.00,,,0.00,WUHU21623XXSP,2013-04-25 00:20:00,
2013-04-24 19:25:00,51.4,27.2,30.28,NNE,22,0.0,0.0,39,0.00,,,0.00,WUHU21623XXSP,2013-04-25 00:25:00,
2013-04-24 19:30:00,50.7,27.2,30.28,NNE,22,0.0,0.0,40,0.00,,,0.00,WUHU21623XXSP,2013-04-25 00:30:00,
2013-04-24 19:35:00,50.5,26.4,30.28,NNE,22,0.0,0.0,39,0.00,,,0.00,WUHU21623XXSP,2013-04-25 00:35:00,
2013-04-24 19:40:00,50.2,26.1,30.28,NNE,22,0.0,0.0,39,0.00,,,0.00,WUHU21623XXSP,2013-04-25 00:40:00,
2013-04-24 19:45:00,49.6,26.3,30.28,NNE,22,0.0,0.0,40,0.00,,,0.00,WUHU21623XXSP,2013-04-25 00:45:00,
2013-04-24 19:50:00,49.3,26.0,30.28,NNE,22,0.0,0.0,40,0.00,,,0.00,WUHU21623XXSP,2013-04-25 00:50:00,
2013-04-24 19:55:00,49.1,26.3,30.29,NNE,22,0.0,0.0,41,0.00,,,0.00,WUHU21623XXSP,2013-04-25 00:55:00,
2013-04-24 20:00:00,48.6,25.8,30.29,NNE,22,0.0,0.0,41,0.00,,,0.00,WUHU21623XXSP,2013-04-25 01:00:00,
2013-04-24 20:05:00,48.2,25.5,30.29,NNE,22,0.0,0.0,41,0.00,,,0.00,WUHU21623XXSP,2013-04-25 01:05:00,
2013-04-24 20:10:00,48.0,25.9,30.29,NNE,22,0.0,0.0,42,0.00,,,0.00,WUHU21623XXSP,2013-04-25 01:10:00,
2013-04-24 20:15:00,47.7,25.6,30.30,NNE,22,0.0,0.0,42,0.00,,,0.00,WUHU21623XXSP,2013-04-25 01:15:00,
2013-04-24 20:20:00,47.3,25.8,30.30,NNE,22,0.0,0.0,43,0.00,,,0.00,WUHU21623XXSP,2013-04-25 01:20:00,
2013-04-24 20:25:00,47.1,26.2,30.30,NNE,22,0.0,0.0,44,0.00,,,0.00,WUHU21623XXSP,2013-04-25 01:25:00,
2013-04-24 20:30:00,46.6,26.2,30.30,NNE,22,0.0,0.0,45,0.00,,,0.00,WUHU21623XXSP,2013-04-25 01:30:00,
2013-04-24 20:35:00,46.0,26.3,30.30,NNE,22,0.0,0.0,46,0.00,,,0.00,WUHU21623XXSP,2013-04-25 01:35:00,
2013-04-24 20:40:00,45.7,26.5,30.30,NNE,22,0.0,0.0,47,0.00,,,0.00,WUHU21623XXSP,2013-04-25 01:40:00,
2013-04-24 20:45:00,45.1,26.5,30.31,NNE,22,0.0,0.0,48,0.00,,,0.00,WUHU21623XXSP,2013-04-25 01:45:00,
2013-04-24 20:50:00,44.8,26.8,30.31,NNE,22,0.0,0.0,49,0.00,,,0.00,WUHU21623XXSP,2013-04-25 01:50:00,
2013-04-24 20:55:00,44.1,26.7,30.31,NNE,22,0.0,0.0,50,0.00,,,0.00,WUHU21623XXSP,2013-04-25 01:55:00,
2013-04-24 21:00:00,43.7,26.8,30.31,NNE,22,0.0,0.0,51,0.00,,,0.00,WUHU21623XXSP,2013-04-25 02:00:00,
2013-04-24 21:05:00,43.3,26.4,30.31,NNE,22,0.0,0.0,51,0.00,,,0.00,WUHU21623XXSP,2013-04-25 02:05:00,
2013-04-24 21:10:00,43.0,26.5,30.32,NNE,22,0.0,0.0,52,0.00,,,0.00,WUHU21623XXSP,2013-04-25 02:10:00,
2013-04-24 21:15:00,43.0,26.5,30.31,NNE,22,0.0,0.0,52,0.00,,,0.00,WUHU21623XXSP,2013-04-25 02:15:00,
2013-04-24 21:20:00,42.6,25.8,30.31,NNE,22,0.0,0.0,51,0.00,,,0.00,WUHU21623XXSP,2013-04-25 02:20:00,
2013-04-24 21:25:00,43.0,26.1,30.32,NNE,22,0.0,0.0,51,0.00,,,0.00,WUHU21623XXSP,2013-04-25 02:25:00,
2013-04-24 21:30:00,42.6,26.1,30.31,NNE,22,0.0,0.0,52,0.00,,,0.00,WUHU21623XXSP,2013-04-25 02:30:00,
2013-04-24 21:35:00,42.6,26.2,30.32,NNE,22,0.0,0.0,53,0.00,,,0.00,WUHU21623XXSP,2013-04-25 02:35:00,
2013-04-24 21:40:00,42.1,26.5,30.32,NNE,22,0.0,0.0,54,0.00,,,0.00,WUHU21623XXSP,2013-04-25 02:40:00,
2013-04-24 21:45:00,41.5,26.5,30.32,NNE,22,0.0,0.0,55,0.00,,,0.00,WUHU21623XXSP,2013-04-25 02:45:00,
2013-04-24 21:50:00,41.2,26.6,30.32,NNE,22,0.0,0.0,56,0.00,,,0.00,WUHU21623XXSP,2013-04-25 02:50:00,
2013-04-24 21:55:00,40.6,26.1,30.31,NNE,22,0.0,0.0,56,0.00,,,0.00,WUHU21623XXSP,2013-04-25 02:55:00,
2013-04-24 22:00:00,40.3,26.2,30.31,NNE,22,0.0,0.0,57,0.00,,,0.00,WUHU21623XXSP,2013-04-25 03:00:00,
2013-04-24 22:05:00,39.9,25.8,30.31,NNE,22,0.0,0.0,57,0.00,,,0.00,WUHU21623XXSP,2013-04-25 03:05:00,
2013-04-24 22:10:00,39.7,26.1,30.31,NNE,22,0.0,0.0,58,0.00,,,0.00,WUHU21623XXSP,2013-04-25 03:10:00,
2013-04-24 22:15:00,39.4,26.6,30.32,NNE,22,0.0,0.0,60,0.00,,,0.00,WUHU21623XXSP,2013-04-25 03:15:00,
2013-04-24 22:20:00,39.0,26.3,30.31,NNE,22,0.0,0.0,60,0.00,,,0.00,WUHU21623XXSP,2013-04-25 03:20:00,
2013-04-24 22:25:00,39.0,26.6,30.32,NNE,22,0.0,0.0,61,0.00,,,0.00,WUHU21623XXSP,2013-04-25 03:25:00,
2013-04-24 22:30:00,39.0,26.6,30.32,NNE,22,0.0,0.0,61,0.00,,,0.00,WUHU21623XXSP,2013-04-25 03:30:00,
2013-04-24 22:35:00,38.8,26.5,30.33,NNE,22,0.0,0.0,61,0.00,,,0.00,WUHU21623XXSP,2013-04-25 03:35:00,
2013-04-24 22:40:00,38.8,26.9,30.33,NNE,22,0.0,0.0,62,0.00,,,0.00,WUHU21623XXSP,2013-04-25 03:40:00,
2013-04-24 22:45:00,38.8,26.9,30.33,NNE,22,0.0,0.0,62,0.00,,,0.00,WUHU21623XXSP,2013-04-25 03:45:00,
2013-04-24 22:50:00,38.8,27.2,30.32,NNE,22,0.0,0.0,63,0.00,,,0.00,WUHU21623XXSP,2013-04-25 03:50:00,
2013-04-24 22:55:00,38.3,27.1,30.33,NNE,22,0.0,0.0,64,0.00,,,0.00,WUHU21623XXSP,2013-04-25 03:55:00,
2013-04-24 23:00:00,38.1,27.3,30.33,NNE,22,0.0,0.0,65,0.00,,,0.00,WUHU21623XXSP,2013-04-25 04:00:00,
2013-04-24 23:05:00,37.8,27.4,30.33,NNE,22,0.0,0.0,66,0.00,,,0.00,WUHU21623XXSP,2013-04-25 04:05:00,
2013-04-24 23:10:00,37.4,27.1,30.33,NNE,22,0.0,0.0,66,0.00,,,0.00,WUHU21623XXSP,2013-04-25 04:10:00,
2013-04-24 23:15:00,37.2,27.3,30.34,NNE,22,0.0,0.0,67,0.00,,,0.00,WUHU21623XXSP,2013-04-25 04:15:00,
2013-04-24 23:20:00,37.0,27.5,30.34,NNE,22,0.0,0.0,68,0.00,,,0.00,WUHU21623XXSP,2013-04-25 04:20:00,
2013-04-24 23:25:00,36.5,26.9,30.34,NNE,22,0.0,0.0,68,0.00,,,0.00,WUHU21623XXSP,2013-04-25 04:25:00,
2013-04-24 23:30:00,36.3,26.8,30.34,NNE,22,0.0,0.0,68,0.00,,,0.00,WUHU21623XXSP,2013-04-25 04:30:00,
2013-04-24 23:35:00,36.1,26.6,30.34,NNE,22,0.0,0.0,68,0.00,,,0.00,WUHU21623XXSP,2013-04-25 04:35:00,
2013-04-24 23:40:00,35.8,26.6,30.35,NNE,22,0.0,0.0,69,0.00,,,0.00,WUHU21623XXSP,2013-04-25 04:40:00,
2013-04-24 23:45:00,35.4,26.2,30.34,NNE,22,0.0,0.0,69,0.00,,,0.00,WUHU21623XXSP,2013-04-25 04:45:00,
2013-04-24 23:50:00,35.4,26.2,30.34,NNE,22,0.0,0.0,69,0.00,,,0.00,WUHU21623XXSP,2013-04-25 04:50:00,
2013-04-24 23:55:00,35.1,25.9,30.35,NNE,22,0.0,0.0,69,0.00,,,0.00,WUHU21623XXSP,2013-04-25 04:55:00,